Weather History for Torrington, WY

Change the Weather History Date:

Thursday, December 13, 2012

  Actual Average Record
Temperature  
Mean Temperature 36 °F 27 °F  
Max Temperature 51 °F 40 °F 59 °F (2008)
Min Temperature 20 °F 14 °F -4 °F (2000)
Degree Days  
Heating Degree Days 29 38  
Month to date heating degree days 369 483  
Since 1 July heating degree days 1712 2066  
Cooling Degree Days 0 0  
Month to date cooling degree days 0 0  
Year to date cooling degree days 1021 678  
Moisture  
Dew Point 16 °F    
Average Humidity 44    
Maximum Humidity 65    
Minimum Humidity 22    
Precipitation  
Precipitation 0.00 in 0.02 in 0.00 in (2014)
Month to date precipitation T 0.18  
Year to date precipitation 7.00 14.02  
Sea Level Pressure  
Sea Level Pressure 29.95 in    
Wind  
Wind Speed 7 mph (ESE)    
Max Wind Speed 14 mph    
Max Gust Speed 17 mph    
Visibility 10 miles    
Events      
T = Trace of Precipitation, MM = Missing Value Source: NWS Daily Summary

Daily Weather History Graph

Daily Weather History Graph

Search for Another Location

Airport:

Trip Planner

Search our weather history database for the weather conditions in past years. The results will help you decide how hot, cold, wet, or windy it might be!

Date:

Astronomy

Dec. 13, 2012 Rise Set
Actual Time 7:16 AM MST 4:25 PM MST
Civil Twilight 6:45 AM MST 4:57 PM MST
Nautical Twilight 6:09 AM MST 5:32 PM MST
Astronomical Twilight 5:35 AM MST 6:06 PM MST
Moon 7:27 AM MST (12/13) 5:11 PM MST (12/13)
Length of Visible Light 10h 12m
Length of Day
9h 08m
New Moon, 0% of the Moon is Illuminated
Dec 13
New Moon
Dec 19
First Quarter
Dec 28
Full
Jan 4
Last Quarter
Jan 11
New

Hourly Weather History & Observations

Time (MST) Temp. Windchill Dew Point Humidity Pressure Visibility Wind Dir Wind Speed Gust Speed Precip Events Conditions
12:53 AM 37.9 °F 31.5 °F 17.1 °F 43% 29.86 in 10.0 mi WSW 9.2 mph - N/A   Clear
1:53 AM 39.9 °F 35.8 °F 16.0 °F 38% 29.86 in 10.0 mi Variable 5.8 mph - N/A   Clear
2:53 AM 28.0 °F 24.2 °F 15.1 °F 58% 29.90 in 10.0 mi SSE 3.5 mph - N/A   Clear
3:53 AM 24.1 °F 16.0 °F 14.0 °F 65% 29.94 in 10.0 mi NE 6.9 mph - N/A   Clear
4:53 AM 23.0 °F 15.8 °F 12.9 °F 65% 29.97 in 10.0 mi East 5.8 mph - N/A   Clear
5:53 AM 24.1 °F 14.4 °F 14.0 °F 65% 29.96 in 10.0 mi NNE 9.2 mph - N/A   Clear
6:53 AM 26.1 °F 21.9 °F 14.0 °F 60% 29.99 in 10.0 mi SSE 3.5 mph - N/A   Clear
7:53 AM 24.1 °F - 14.0 °F 65% 29.99 in 10.0 mi Calm Calm - N/A   Clear
8:53 AM 28.0 °F 22.8 °F 16.0 °F 61% 30.00 in 10.0 mi East 4.6 mph - N/A   Clear
9:53 AM 34.0 °F - 19.0 °F 54% 30.04 in 10.0 mi Calm Calm - N/A   Clear
10:53 AM 39.0 °F 34.0 °F 18.0 °F 43% 30.00 in 10.0 mi ESE 6.9 mph - N/A   Partly Cloudy
11:53 AM 41.0 °F 35.8 °F 18.0 °F 40% 30.00 in 10.0 mi SE 8.1 mph - N/A   Overcast
12:53 PM 46.0 °F 41.9 °F 18.0 °F 33% 29.94 in 10.0 mi South 8.1 mph - N/A   Clear
1:53 PM 50.0 °F - 14.0 °F 24% 29.90 in 10.0 mi South 10.4 mph - N/A   Partly Cloudy
2:53 PM 48.9 °F - 14.0 °F 25% 29.93 in 10.0 mi South 5.8 mph - N/A   Clear
4:53 PM 41.0 °F 38.0 °F 16.0 °F 36% 29.97 in 10.0 mi ESE 4.6 mph - N/A   Clear
6:53 PM 37.9 °F 31.5 °F 17.1 °F 43% 29.96 in 10.0 mi ESE 9.2 mph - N/A   Clear
7:53 PM 33.1 °F 26.1 °F 16.0 °F 50% 29.97 in 10.0 mi East 8.1 mph - N/A   Clear
8:53 PM 33.1 °F 26.1 °F 17.1 °F 52% 29.96 in 10.0 mi ESE 8.1 mph - N/A   Clear
9:53 PM 30.9 °F 22.8 °F 16.0 °F 54% 29.94 in 10.0 mi ESE 9.2 mph - N/A   Clear
10:53 PM 30.9 °F 22.2 °F 16.0 °F 54% 29.91 in 10.0 mi East 10.4 mph - N/A   Clear
11:53 PM 30.9 °F 22.8 °F 16.0 °F 54% 29.90 in 10.0 mi ESE 9.2 mph - N/A   Clear